Погода в Ахметли

Турция     38°31′02″N   27°56′18″E
темп.,
°C
ветер,
м/с
пор.,
м/с
влажн.,
%
обл.,
%
осадки,
мм/ч
давл.,
гПа
погр.,
м
27 октября, ср
ср2700:00+10юз11470 0.0 102010
03:00+9юз11520 0.0 102010
06:00+8ююв01550 0.0 102010
09:00+11св11480 0.0 1021103
12:00+15ссв22340 0.0 1021519
15:00+19ссз21270 0.0 1019825
18:00+16зсз12330 0.0 101918
21:00+13юз22410 0.0 102113
28 октября, чт
чт2800:00+10зюз12530 0.0 102215
03:00+9ю11660 0.0 102210
06:00+7ююв11820 0.0 102210
09:00+10всв12660 0.0 1023151
12:00+15ссв23390 0.0 1022507
15:00+19ссв22270 0.0 1019689
18:00+16зсз22390 0.0 101813
21:00+13юз22570 0.0 102016
29 октября, пт
пт2900:00+10юз11720 0.0 102113
03:00+9юз11830 0.0 102011
06:00+8ююв01870 0.0 102010
09:00+9всв11790 0.0 1020149
12:00+14ссв22540 0.0 1019514
15:00+18ссв22380 0.0 1017776
18:00+15зсз11460 0.0 101613
21:00+13ю11510 0.0 101711
30 октября, сб
сб3000:00+11вюв11540 0.0 101810
03:00+10вюв11580 0.0 101811
06:00+9вюв22570 0.0 101813
09:00+11в23450 0.0 1019182
12:00+15ссв22330 0.0 1018589
15:00+18ссз22270 0.0 1016989
18:00+15зсз23350 0.0 101725
21:00+12зюз22520 0.0 101820
31 октября, вс
вс3100:00+9з22720 0.0 101917
03:00+8зюз22840 0.0 101912
06:00+7юз118946 0.0 101910
09:00+8с108664 0.0 1020234
12:00+13с21580 0.0 1019597
15:00+17ссз32420 0.0 10171005
18:00+14зсз22480 0.0 101713
21:00+12ююз22570 0.0 101911